Location: Tel Aviv
(32.0670°N, 34.7670°E)
Time: 11:39:10
(UTC+03:00)

Transit 2A - Pass Details

Date: 23 January 2022
Orbit: 598 x 960 km, 66.7° (Epoch: 20 May)

Event Time Altitude Azimuth Distance (km) Brightness Sun altitude
Rises 19:44:32 0° 346° (NNW) 3,563 9.6 -33.4°
Enters shadow 19:46:18 - 353° (N) 2,981 9.1 -33.7°
Reaches altitude 10° 19:47:37 10° 359° (N) 2,570 - -34.0°
Maximum altitude 19:52:26 25° 53° (NE) 1,653 - -35.0°
Drops below altitude 10° 19:56:54 10° 108° (ESE) 2,370 - -36.0°
Sets 19:59:37 0° 122° (ESE) 3,229 - -36.6°
